CW7536 Weather Reports


Display with metric or nautical units.
time (UTC)temp
F
wind
direction
speed
MPH
gust
MPH
rain 1hr
in
rain 24hr
in
rain mn
in
humidity
%
barometer
mb
20260508141505 58 224 0.0 2.0 0.00 5.93 0.00 47 1013.0
20260508134600 57 238 0.0 7.0 0.00 5.93 0.00 46 1013.2
20260508133115 57 274 0.0 2.0 0.00 5.93 0.00 47 1013.4
20260508131549 55 259 0.0 4.0 0.00 5.93 0.00 47 1013.3
20260508130043 54 260 0.0 1.0 0.00 5.93 0.00 44 1013.4
20260508124539 52 283 0.0 2.0 0.00 5.93 0.00 39 1013.3
20260508123039 50 276 1.0 3.0 0.00 5.93 0.00 34 1013.4
20260508121535 49 264 0.0 1.0 0.00 5.93 0.00 1 1013.4
20260508120025 47 258 0.0 1.0 0.00 5.93 0.00 1 1013.4
20260508114521 47 259 0.0 1.0 0.00 5.93 0.00 1 1013.4
20260508113016 47 275 0.0 0.0 0.00 5.93 0.00 1 1013.3
20260508111512 46 258 0.0 0.0 0.00 5.93 0.00 1 1013.3
20260508110017 45 258 0.0 0.0 0.00 5.93 0.00 1 1013.1
20260508104503 44 258 0.0 0.0 0.00 5.93 0.00 1 1012.9
20260508103102 44 258 0.0 0.0 0.00 5.93 0.00 1 1012.8
20260508101610 43 258 0.0 1.0 0.00 5.93 0.00 1 1012.6
20260508100052 43 282 0.0 1.0 0.00 5.93 0.00 1 1012.3
20260508094546 43 283 0.0 0.0 0.00 5.93 0.00 1 1012.4
20260508093042 44 283 0.0 0.0 0.00 5.93 0.00 1 1012.4
20260508091545 44 283 0.0 0.0 0.00 5.93 0.00 1 1012.2
20260508090036 45 283 0.0 0.0 0.00 5.93 0.00 1 1012.2
20260508084528 45 283 0.0 0.0 0.00 5.93 0.00 1 1012.0
20260508083025 45 283 0.0 0.0 0.00 5.93 0.00 1 1011.7
20260508081519 46 283 0.0 1.0 0.00 5.93 0.00 1 1011.8
20260508080018 46 41 0.0 2.0 0.00 5.93 0.00 1 1012.4
20260508074517 46 31 0.0 0.0 0.00 5.93 0.00 1 1012.2
20260508073006 46 50 0.0 1.0 0.00 5.93 0.00 1 1012.0
20260508071502 46 38 0.0 1.0 0.00 5.93 0.00 1 1011.5
20260508070057 47 66 0.0 1.0 0.00 5.93 0.00 1 1011.4
20260508064553 47 37 0.0 0.0 0.00 9.32 0.00 1 1011.6
20260508063049 47 37 0.0 1.0 0.00 9.32 0.00 5 1011.4
20260508061544 48 39 0.0 2.0 0.00 9.32 0.00 15 1011.5
20260508060044 49 33 0.0 2.0 0.00 9.32 0.00 29 1012.1
20260508054546 49 335 0.0 2.0 0.00 9.32 0.00 39 1011.9
20260508053100 48 257 0.0 1.0 0.00 9.32 0.00 23 1011.3
20260508051534 47 265 0.0 1.0 0.00 9.32 0.00 15 1010.4
20260508050036 47 110 0.0 0.0 0.00 9.32 0.00 21 1009.5
20260508044531 48 110 0.0 1.0 0.00 9.32 0.00 22 1009.4
20260508043029 48 89 0.0 0.0 0.00 9.32 0.00 31 1009.8
20260508041546 47 89 0.0 0.0 0.00 9.32 0.00 31 1009.6
20260508040026 47 89 0.0 0.0 0.00 9.32 0.00 38 1009.5
20260508034520 48 89 0.0 0.0 0.00 9.32 9.32 39 1009.3
20260508033019 49 15 0.0 0.0 0.00 9.32 9.32 46 1009.3
20260508031509 49 15 0.0 0.0 0.00 9.32 9.32 46 1009.5
20260508030005 49 15 0.0 0.0 0.00 9.32 9.32 47 1009.6
20260508024502 49 15 0.0 0.0 0.02 9.32 9.32 49 1009.6
20260508023057 49 15 0.0 0.0 0.61 9.32 9.32 50 1009.7
20260508021553 50 15 0.0 0.0 4.13 9.32 9.32 52 1009.7
20260508020051 50 15 0.0 0.0 4.46 9.32 9.32 53 1009.5
20260508014546 51 15 0.0 0.0 4.51 9.30 9.30 54 1009.3
20260508013040 52 15 0.0 0.0 3.92 8.71 8.71 54 1009.3
20260508011543 53 15 0.0 0.0 0.30 5.09 5.09 53 1009.3
20260508010031 53 15 0.0 0.0 0.07 4.86 4.86 51 1009.1
20260508004526 54 15 0.0 0.0 0.00 4.79 4.79 49 1009.0
20260508003022 55 15 0.0 0.0 0.00 4.79 4.79 48 1008.8
20260508001516 56 15 0.0 0.0 0.00 4.79 4.79 43 1008.5
20260508000012 57 15 0.0 0.0 0.00 4.79 4.79 42 1008.5
20260507234508 58 15 0.0 1.0 0.00 4.79 4.79 40 1008.3
20260507233014 59 13 0.0 1.0 0.00 4.79 4.79 40 1008.3
20260507231505 60 8 0.0 1.0 0.00 4.79 4.79 37 1008.0
20260507230004 60 37 0.0 2.0 0.00 4.79 4.79 36 1008.0
20260507224601 61 41 0.0 1.0 0.00 4.79 4.79 36 1008.0
20260507223101 61 46 0.0 2.0 0.00 4.79 4.79 36 1008.0
20260507221549 61 23 0.0 6.0 0.00 4.79 4.79 35 1008.0
20260507220045 62 328 1.0 4.0 0.00 4.79 4.79 35 1008.0
20260507214542 62 302 0.0 6.0 0.00 4.79 4.79 34 1008.0
20260507213040 62 5 0.0 2.0 0.00 4.79 4.79 36 1007.9
20260507211532 62 249 1.0 4.0 0.00 4.79 4.79 36 1007.9
20260507210027 63 44 1.0 9.0 0.00 4.79 4.79 36 1007.8
20260507204523 63 72 1.0 3.0 0.00 4.79 4.79 34 1007.6
20260507203019 63 60 1.0 4.0 0.00 4.79 4.79 35 1007.7
20260507201516 63 27 0.0 4.0 0.00 4.79 4.79 36 1007.8
20260507200012 63 353 0.0 2.0 0.00 4.79 4.79 38 1007.7
20260507194508 63 51 0.0 6.0 0.00 4.79 4.79 37 1007.9
20260507193001 62 15 0.0 6.0 0.00 4.79 4.79 38 1007.9
20260507191556 62 84 0.0 4.0 0.00 4.79 4.79 37 1008.1
20260507190055 62 222 0.0 4.0 0.00 4.79 4.79 38 1008.4
20260507184550 62 68 0.0 7.0 0.00 4.79 4.79 39 1008.5
20260507183047 62 266 1.0 5.0 0.00 4.79 4.79 39 1008.7
20260507181538 62 323 0.0 2.0 0.00 4.79 4.79 39 1008.8
20260507180037 61 346 1.0 4.0 0.00 4.79 4.79 38 1009.2
20260507174532 61 345 1.0 4.0 0.00 4.79 4.79 39 1009.4
20260507173038 61 84 2.0 4.0 0.00 4.79 4.79 40 1009.5
20260507171537 61 349 1.0 2.0 0.00 4.79 4.79 38 1009.9
20260507170017 61 292 1.0 8.0 0.00 4.79 4.79 41 1010.1
20260507164512 61 333 0.0 6.0 0.00 4.79 4.79 36 1010.3
20260507163010 60 300 0.0 4.0 0.00 4.79 4.79 38 1010.4
20260507161503 60 290 0.0 4.0 0.00 4.79 4.79 39 1010.5
20260507160059 60 303 0.0 4.0 0.00 4.79 4.79 39 1010.8
20260507154555 61 326 0.0 3.0 0.08 4.79 4.79 40 1010.9
20260507153056 60 73 0.0 4.0 0.22 4.79 4.79 43 1011.0
20260507151546 59 287 1.0 4.0 1.37 4.79 4.79 45 1011.2
20260507150043 59 286 1.0 5.0 1.40 4.79 4.79 45 1011.4
20260507144537 58 359 0.0 2.0 1.32 4.71 4.71 45 1011.5
20260507143032 58 28 1.0 4.0 1.18 4.57 4.57 46 1011.5